Springboro, OH

4:22 PM EDT on July 23, 2016 (GMT -0400)
Dayton-Wright Brothers

Weather History for KMGY - March, 2014

Change the Weather History Date:

Friday, March 21, 2014

  Actual Average (KFFO) Record (KFFO)
Temperature  
Mean Temperature 52 °F -  
Max Temperature 68 °F 50 °F 85 °F (2012)
Min Temperature 37 °F 29 °F 15 °F (2002)
Degree Days  
Heating Degree Days 14    
Growing Degree Days 2 (Base 50)    
Moisture  
Dew Point 31 °F    
Average Humidity 50    
Maximum Humidity 79    
Minimum Humidity 24    
Precipitation  
Precipitation 0.00 in - - ()
Sea Level Pressure  
Sea Level Pressure 29.94 in    
Wind  
Wind Speed 9 mph (South)    
Max Wind Speed 16 mph    
Max Gust Speed 24 mph    
Visibility 9 miles    
Events      
Averages and records for this station are not official NWS values.
T = Trace of Precipitation, MM = Missing Value Source: NWS Daily Summary

Daily Weather History Graph

Daily Weather History Graph

Search for Another Location

Airport or City:

Trip Planner

Search our weather history database for the weather conditions in past years. The results will help you decide how hot, cold, wet, or windy it might be!

Date:

Astronomy

Mar. 21, 2014 Rise Set
Actual Time 7:38 AM EDT 7:49 PM EDT
Civil Twilight 7:11 AM EDT 8:16 PM EDT
Nautical Twilight 6:40 AM EDT 8:48 PM EDT
Astronomical Twilight 6:08 AM EDT 9:20 PM EDT
Moon 12:06 AM EDT (3/21) 10:30 AM EDT (3/21)
Length of Visible Light 13h 04m
Length of Day
12h 11m
Waning Gibbous, 75% of the Moon is Illuminated
Mar 21
Waning Gibbous
Mar 23
Last Quarter
Mar 30
New
Apr 7
First Quarter
Apr 15
Full

Hourly Weather History & Observations

Time (EDT) Temp. Windchill Dew Point Humidity Pressure Visibility Wind Dir Wind Speed Gust Speed Precip Events Conditions
12:53 AM 42.1 °F 36.6 °F 33.1 °F 70% 30.04 in 10.0 mi NE 9.2 mph - N/A   Overcast
1:53 AM 42.1 °F 37.1 °F 33.1 °F 70% 30.04 in 10.0 mi ENE 8.1 mph - N/A   Overcast
2:53 AM 41.0 °F 37.1 °F 33.1 °F 73% 30.04 in 10.0 mi ENE 5.8 mph - N/A   Overcast
3:53 AM 39.9 °F - 33.1 °F 77% 30.04 in 9.0 mi Calm Calm - N/A   Mostly Cloudy
4:53 AM 39.9 °F 34.5 °F 33.1 °F 77% 30.03 in 9.0 mi East 8.1 mph - N/A   Overcast
5:53 AM 39.0 °F 34.0 °F 33.1 °F 79% 30.04 in 8.0 mi East 6.9 mph - N/A   Overcast
6:53 AM 37.9 °F 31.5 °F 32.0 °F 79% 30.03 in 8.0 mi East 9.2 mph - N/A   Scattered Clouds
7:53 AM 37.9 °F 30.5 °F 30.9 °F 76% 30.02 in 7.0 mi East 11.5 mph - N/A   Overcast
8:53 AM 37.9 °F 32.7 °F 32.0 °F 79% 30.02 in 5.0 mi ESE 6.9 mph - N/A   Haze
9:53 AM 43.0 °F 37.7 °F 33.1 °F 68% 30.02 in 8.0 mi SSE 9.2 mph - N/A   Overcast
10:53 AM 48.9 °F - 33.1 °F 54% 30.00 in 10.0 mi South 12.7 mph - N/A   Clear
11:53 AM 53.1 °F - 30.9 °F 43% 29.99 in 10.0 mi SW 8.1 mph - N/A   Clear
12:53 PM 57.0 °F - 30.0 °F 36% 29.97 in 10.0 mi WSW 13.8 mph 19.6 mph N/A   Clear
1:53 PM 60.1 °F - 30.9 °F 33% 29.95 in 10.0 mi WSW 11.5 mph 20.7 mph N/A   Clear
2:53 PM 64.0 °F - 30.9 °F 29% 29.91 in 10.0 mi SW 11.5 mph 19.6 mph N/A   Clear
3:53 PM 66.9 °F - 30.0 °F 25% 29.88 in 10.0 mi South 16.1 mph 24.2 mph N/A   Clear
4:53 PM 66.9 °F - 28.9 °F 24% 29.85 in 10.0 mi SW 13.8 mph 21.9 mph N/A   Clear
5:53 PM 66.9 °F - 28.9 °F 24% 29.83 in 10.0 mi SSW 15.0 mph 24.2 mph N/A   Clear
6:53 PM 64.9 °F - 28.9 °F 26% 29.83 in 10.0 mi SSW 9.2 mph - N/A   Clear
7:53 PM 63.0 °F - 28.9 °F 28% 29.83 in 10.0 mi SSW 10.4 mph - N/A   Clear
8:53 PM 61.0 °F - 30.0 °F 31% 29.83 in 10.0 mi SSW 10.4 mph - N/A   Clear
9:53 PM 60.1 °F - 28.9 °F 31% 29.83 in 10.0 mi SSW 11.5 mph - N/A   Clear
10:53 PM 59.0 °F - 28.0 °F 31% 29.82 in 10.0 mi SSW 12.7 mph - N/A   Clear
11:53 PM 59.0 °F - 27.0 °F 29% 29.80 in 10.0 mi SSW 12.7 mph 23.0 mph N/A   Clear